This is the latest recevied weather packets stored in our database for station/object HB9DDE-10. If no packets are shown the sender has not sent any weather packets the latest 10 day(s).
| Time | Temp. | Humidity | Pressure | Rain* | Wind** | Luminosity | Snow |
|---|---|---|---|---|---|---|---|
| 1777827829 | 18.89° C | 64% | 1015.8 hPa | 0 mm | - | - | - |
| 1777827519 | 18.89° C | 64% | 1015.9 hPa | 0 mm | - | - | - |
| 1777827229 | 18.33° C | 63% | 1015.9 hPa | 0 mm | - | - | - |
| 1777826919 | 18.33° C | 63% | 1016 hPa | 0 mm | - | - | - |
| 1777826630 | 18.33° C | 63% | 1016.1 hPa | 0 mm | - | - | - |
| 1777826320 | 18.33° C | 63% | 1016.1 hPa | 0 mm | - | - | - |
| 1777826034 | 18.33° C | 63% | 1016.1 hPa | 0 mm | - | - | - |
| 1777825723 | 18.33° C | 62% | 1016.2 hPa | 0 mm | - | - | - |
| 1777825414 | 18.33° C | 61% | 1016.2 hPa | 0 mm | - | - | - |
| 1777825124 | 18.33° C | 60% | 1016.2 hPa | 0 mm | - | - | - |
| 1777824813 | 18.89° C | 57% | 1016.3 hPa | 0 mm | - | - | - |
| 1777824524 | 18.89° C | 53% | 1016.4 hPa | 0 mm | - | - | - |
| 1777824233 | 18.89° C | 54% | 1016.4 hPa | 0 mm | - | - | - |
| 1777823919 | 18.89° C | 52% | 1016.5 hPa | 0 mm | - | - | - |
| 1777823614 | 18.89° C | 53% | 1016.5 hPa | 0 mm | - | - | - |
| 1777823326 | 18.89° C | 52% | 1016.4 hPa | 0 mm | - | - | - |
| 1777823014 | 18.89° C | 51% | 1016.4 hPa | 0 mm | - | - | - |
| 1777822723 | 18.89° C | 50% | 1016.4 hPa | 0 mm | - | - | - |
| 1777822414 | 18.89° C | 50% | 1016.3 hPa | 0 mm | - | - | - |
| 1777822125 | 18.89° C | 51% | 1016.2 hPa | 0 mm | - | - | - |
| 1777821834 | 18.89° C | 50% | 1016.1 hPa | 0 mm | - | - | - |
| 1777821521 | 18.89° C | 51% | 1015.8 hPa | 0 mm | - | - | - |
| 1777821231 | 18.89° C | 51% | 1015.8 hPa | 0 mm | - | - | - |
| 1777820925 | 18.89° C | 53% | 1015.8 hPa | 0 mm | - | - | - |
| 1777820615 | 19.44° C | 53% | 1015.5 hPa | 0 mm | - | - | - |
* Rain latest hour (hover to see other rain measurements)
** Current wind speed in m/s (hover to see current wind gust speed)